Overview Statistics Trail Chart Weather Telemetry Raw packets
 

This is the latest recevied weather packets stored in our database for station/object SR3AK-10. If no packets are shown the sender has not sent any weather packets the latest 10 day(s).

<< 26 27 28 29 30 31 32 >>
Time Temp. Humidity Pressure Rain* Wind** Luminosity Snow
1777020647 13.33° C 62% 1012.1 hPa - - - -
1777019747 13.33° C 62% 1012.1 hPa - - - -
1777018847 12.78° C 63% 1012.1 hPa - - - -
1777017946 12.78° C 63% 1012.1 hPa - - - -
1777017046 12.78° C 62% 1011.9 hPa - - - -
1777016146 12.78° C 63% 1012 hPa - - - -
1777015246 12.78° C 62% 1011.9 hPa - - - -
1777014346 12.78° C 62% 1011.8 hPa - - - -
1777013446 13.33° C 61% 1011.5 hPa - - - -
1777012545 13.89° C 59% 1011.4 hPa - - - -
1777011644 13.33° C 60% 1011.4 hPa - - - -
1777010744 13.33° C 61% 1011.3 hPa - - - -
1777009844 13.33° C 60% 1011.2 hPa - - - -
1777008944 13.33° C 60% 1011.2 hPa - - - -
1777008044 13.89° C 59% 1011.2 hPa - - - -
1777007143 13.89° C 59% 1011.1 hPa - - - -
1777006243 12.78° C 62% 1011.1 hPa - - - -
1777005343 12.78° C 62% 1011.1 hPa - - - -
1777004442 12.22° C 62% 1011.1 hPa - - - -
1777003542 12.22° C 62% 1011.1 hPa - - - -
1777002641 12.22° C 63% 1011.2 hPa - - - -
1777001741 12.78° C 63% 1010.9 hPa - - - -
1777000841 12.78° C 63% 1010.9 hPa - - - -
1776999941 12.78° C 63% 1011 hPa - - - -
1776999040 12.78° C 63% 1011.1 hPa - - - -

* Rain since midnight (hover to see other rain measurements)
** Current wind speed in m/s (hover to see current wind gust speed)